Weather History for Salem, OR

Change the Weather History Date:

Monday, April 1, 2013

  Actual Average Record
Temperature  
Mean Temperature 57 °F 49 °F  
Max Temperature 64 °F 59 °F 78 °F (1987)
Min Temperature 49 °F 39 °F 27 °F (1971)
Degree Days  
Heating Degree Days 8 16  
Month to date heating degree days 8 16  
Since 1 July heating degree days 3600 3819  
Cooling Degree Days 0 0  
Month to date cooling degree days 0 0  
Year to date cooling degree days 0 0  
Growing Degree Days 6 (Base 50)    
Moisture  
Dew Point 49 °F    
Average Humidity 77    
Maximum Humidity 89    
Minimum Humidity 64    
Precipitation  
Precipitation 0.00 in 0.11 in 1.60 in (1931)
Month to date precipitation 0.00 0.11  
Year to date precipitation 5.26 14.62  
Snow  
Snow 0.00 in - - ()
Month to date snowfall 0.0  
Snow Depth 0.00 in    
Sea Level Pressure  
Sea Level Pressure 30.11 in    
Wind  
Wind Speed 5 mph (SSW)    
Max Wind Speed 14 mph    
Max Gust Speed 18 mph    
Visibility 10 miles    
Events      
T = Trace of Precipitation, MM = Missing Value Source: NWS Daily Summary

Daily Weather History Graph

Daily Weather History Graph

Search for Another Location

Airport:

Trip Planner

Search our weather history database for the weather conditions in past years. The results will help you decide how hot, cold, wet, or windy it might be!

Date:

Astronomy

Apr. 01, 2013 Rise Set
Actual Time 6:52 AM PDT 7:40 PM PDT
Civil Twilight 6:22 AM PDT 8:09 PM PDT
Nautical Twilight 5:47 AM PDT 8:45 PM PDT
Astronomical Twilight 5:10 AM PDT 9:22 PM PDT
Moon 1:05 AM PDT (4/1) 10:33 AM PDT (4/1)
Length of Visible Light 13h 47m
Length of Day
12h 48m
Waning Gibbous, 66% of the Moon is Illuminated
Apr 1
Waning Gibbous
Apr 2
Last Quarter
Apr 10
New
Apr 18
First Quarter
Apr 25
Full

Hourly Weather History & Observations

Time (PDT) Temp. Dew Point Humidity Pressure Visibility Wind Dir Wind Speed Gust Speed Precip Events Conditions
2:56 AM 54.0 °F 48.9 °F 83% 30.02 in 10.0 mi SSW 5.8 mph - N/A   Overcast
3:56 AM 54.0 °F 50.0 °F 86% 30.03 in 10.0 mi SSW 3.5 mph - N/A   Overcast
5:56 AM 53.1 °F 48.0 °F 83% 30.05 in 10.0 mi Calm Calm - N/A   Overcast
6:51 AM 51.8 °F 48.2 °F 88% 30.05 in 10.0 mi Calm Calm - N/A   Mostly Cloudy
6:56 AM 51.1 °F 48.0 °F 89% 30.06 in 10.0 mi Calm Calm - N/A   Scattered Clouds
7:56 AM 51.1 °F 48.9 °F 92% 30.08 in 10.0 mi Calm Calm - N/A   Mostly Cloudy
8:56 AM 54.0 °F 48.9 °F 83% 30.09 in 10.0 mi Calm Calm - N/A   Mostly Cloudy
10:56 AM 57.9 °F 48.9 °F 72% 30.11 in 10.0 mi SSW 6.9 mph - N/A   Overcast
11:56 AM 60.1 °F 48.9 °F 67% 30.12 in 10.0 mi WSW 5.8 mph - N/A   Overcast
12:56 PM 62.1 °F 50.0 °F 65% 30.12 in 10.0 mi SSE 10.4 mph - N/A   Overcast
1:03 PM 62.6 °F 50.0 °F 63% 30.12 in 10.0 mi SSE 9.2 mph - N/A   Overcast
1:56 PM 63.0 °F 51.1 °F 65% 30.11 in 10.0 mi South 9.2 mph - N/A   Mostly Cloudy
2:56 PM 62.1 °F 51.1 °F 67% 30.11 in 10.0 mi Variable 4.6 mph - N/A   Mostly Cloudy
3:29 PM 62.6 °F 51.8 °F 68% 30.11 in 10.0 mi South 10.4 mph - N/A   Overcast
3:56 PM 63.0 °F 52.0 °F 67% 30.11 in 10.0 mi SSW 10.4 mph - N/A   Overcast
4:56 PM 62.1 °F 52.0 °F 70% 30.12 in 10.0 mi SSW 12.7 mph - N/A   Overcast
5:03 PM 62.6 °F 51.8 °F 68% 30.12 in 10.0 mi South 11.5 mph - N/A   Overcast
5:10 PM 62.6 °F 51.8 °F 68% 30.12 in 10.0 mi South 11.5 mph - N/A   Overcast
5:56 PM 60.1 °F 50.0 °F 69% 30.13 in 10.0 mi SW 9.2 mph - N/A   Overcast
6:56 PM 59.0 °F 48.9 °F 69% 30.14 in 10.0 mi SW 8.1 mph - N/A   Overcast
7:56 PM 57.0 °F 48.9 °F 74% 30.14 in 10.0 mi SW 6.9 mph - N/A   Overcast
8:56 PM 55.9 °F 48.0 °F 75% 30.16 in 10.0 mi WSW 5.8 mph - N/A   Overcast
9:49 PM 55.4 °F 48.2 °F 77% 30.17 in 10.0 mi Calm Calm - N/A   Overcast
9:56 PM 55.0 °F 48.0 °F 77% 30.17 in 10.0 mi SSW 4.6 mph - N/A   Overcast
10:27 PM 55.4 °F 46.4 °F 72% 30.18 in 10.0 mi SSW 3.5 mph - N/A   Overcast
10:56 PM 54.0 °F 48.0 °F 80% 30.18 in 10.0 mi Calm Calm - N/A   Overcast
11:56 PM 52.0 °F 48.0 °F 86% 30.18 in 10.0 mi SSW 3.5 mph - N/A   Overcast